Location: Bercimuel
(41.3983°N, 3.5711°W)
Time: 12:01:12
(UTC+00:00)

Cosmos 2058 Rocket - Pass Details

Date: 15 May 2026
Orbit: 604 x 632 km, 82.5° (Epoch: 5 June)

Event Time Altitude Azimuth Distance (km) Brightness Sun altitude
Exits shadow 22:30:59 51° 43° (NE) 765 3.5 -25.3°
Drops below altitude 10° 22:34:26 10° 14° (NNE) 1,962 6.3 -25.6°
Sets 22:36:40 0° 12° (NNE) 2,868 7.3 -25.8°
